Regional Weather Roundup
Issued by NWS

Home | Current Version | Previous Version | Text Only | Print | Product List | Glossary Off
Versions: 1 2 3 4 5 6 7 8 9 10 11 12 13 14 15 16 17 18 19 20 21 22 23 24 25 26 27 28 29 30 31 32 33 34 35 36 37 38 39 40 41 42 43 44 45 46 47 48 49 50

000
ASUS43 KDMX 250101
RWRIA

WEATHER ROUNDUP FOR IOWA
NATIONAL WEATHER SERVICE DES MOINES IA
800 PM CDT WED MAY 24 2017

NOTE: "FAIR" INDICATES FEW OR NO CLOUDS BELOW 12,000 FEET WITH NO
SIGNIFICANT WEATHER AND/OR OBSTRUCTIONS TO VISIBILITY.

* - THESE STATIONS ARE NOT NWS STATIONS...THUS NOT UNDER NWS
QUALITY CONTROL.  THEY ALSO DO NOT REPORT WEATHER SUCH
AS PRECIPITATION OR FOG.

IAZ001>003-012>014-020>022-031>034-043>046-250200-
   NORTHWEST IOWA

CITY           SKY/WX    TMP DP  RH WIND       PRES   REMARKS
CARROLL *      CLEAR     61  48  63 N3        29.67S
CHEROKEE *     CLEAR     58  45  60 NE5       29.68R
DENISON *      CLOUDY    63  46  55 CALM      29.68S
LE MARS *      CLEAR     63  43  48 CALM      29.67S
ORANGE CITY *  CLEAR     63  45  51 CALM      29.67F
SHELDON *      CLEAR     59  43  55 E5        29.66F
SIOUX CITY     CLEAR     63  47  55 S5        29.66S
SPENCER        PTCLDY    60  45  57 E8        29.69S
STORM LAKE *   MOCLDY    61  43  51 NE6       29.68S
$$

IAZ055>058-069>071-079>083-090>094-250200-
   SOUTHWEST IOWA

CITY           SKY/WX    TMP DP  RH WIND       PRES   REMARKS
ATLANTIC *     MOCLDY    63  46  55 CALM      29.67S
AUDUBON *      CLEAR     57  52  82 CALM      29.69R
CLARINDA *     PTCLDY    63  50  63 CALM      29.70R
COUNCIL BLFS * CLEAR     64  45  48 CALM      29.67S
CRESTON *      PTCLDY    59  48  67 N6        29.69R
HARLAN  *      MOCLDY    63  46  55 E5        29.70S
LAMONI         CLOUDY    61  49  64 NE8       29.67R
RED OAK *      CLOUDY    63  48  59 NE6       29.67S
SHENANDOAH *   MOCLDY    64  46  52 NE5       29.68S
$$

IAZ047>049-059>061-072>074-084-250200-
   CENTRAL IOWA

CITY           SKY/WX    TMP DP  RH WIND       PRES   REMARKS
AMES           CLOUDY    60  49  66 NE5       29.67S
ANKENY *       MOCLDY    59  50  72 N5        29.68R
BOONE *        MOCLDY    59  52  77 N5        29.67R
CHARITON *     PTCLDY    57  50  77 N7        29.67R
DES MOINES     PTCLDY    62  48  60 N3        29.67R
GRINNELL*      CLEAR     59  48  67 N9        29.67S
KNOXVILLE *    CLEAR     61  48  63 N8        29.65R
MARSHALLTOWN   CLEAR     58  50  75 NE7       29.66R
NEWTON *       PTCLDY    59  48  67 NE7       29.66R
PELLA *        CLEAR     60  48  65 CALM      29.67R
PERRY *        MOCLDY    63  47  57 E5        29.68R
$$

IAZ004>006-015-016-023>025-035-036-250200-
   NORTH CENTRAL IOWA

CITY           SKY/WX    TMP DP  RH WIND       PRES   REMARKS
ALGONA *       PTCLDY    59  50  72 NE8       29.69S
CLARION *      MOCLDY    59  52  77 N5        29.68S
ESTHERVILLE    CLEAR     58  45  62 CALM      29.68S
FORT DODGE *   PTCLDY    59  48  67 NE6       29.68F
MASON CITY     CLOUDY    58  48  69 N6        29.70R
FOREST CITY *  CLOUDY    59  39  47 NE5       29.69S
WEBSTER CITY * CLOUDY    61  50  67 N7        29.66S
IOWA FALLS *   CLOUDY    60  49  67 N5        29.69R
$$

IAZ007>011-017>019-026>030-037>042-050>054-066-250200-
   NORTHEAST IOWA

CITY           SKY/WX    TMP DP  RH WIND       PRES   REMARKS
CEDAR RAPIDS   CLOUDY    57  51  80 N12       29.65R
CHARLES CITY * CLOUDY    59  50  72 NE5       29.68S
CLINTON *      MOCLDY    58  53  84 NE9       29.63S
DECORAH *      MOCLDY    55  48  76 NE9       29.68R
DUBUQUE        CLOUDY    55  50  83 N9        29.65S
MONTICELLO *   CLOUDY    57  50  77 N8        29.65S
OELWEIN *      PTCLDY    57  50  77 NE7       29.68R
WATERLOO       MOCLDY    57  49  74 E7        29.67R
$$

IAZ064-065-067-068-078-250200-
   EAST CENTRAL IOWA

CITY           SKY/WX    TMP DP  RH WIND       PRES   REMARKS
DAVENPORT      PTCLDY    59  51  75 N9        29.63S
IOWA CITY      CLOUDY    60  49  66 N8        29.66R
MT. PLEASANT * MOCLDY    58  51  77 N10       29.63S
MUSCATINE *    CLOUDY    61  50  67 NE8       29.64R
QUAD CITIES    MOCLDY    62  50  64 N7        29.61S
$$

IAZ062-063-075>077-085>089-095>099-250200-
   SOUTHEAST IOWA

CITY           SKY/WX    TMP DP  RH WIND       PRES   REMARKS
BURLINGTON     CLEAR     61  51  70 N12       29.61R
FAIRFIELD *    CLEAR     59  48  67 N9        29.64S
FORT MADISON * CLEAR     61  52  72 N9        29.63R
KEOKUK *       CLEAR     61  52  72 N6        29.61S
OSKALOOSA *      N/A     60  48  64 N8        29.65S
OTTUMWA        PTCLDY    60  49  66 NE7       29.64S
WASHINGTON *   CLOUDY    61  50  67 N13       29.65S
$$

ABBREVIATIONS USED IN REMARKS
   TC - TEMPERATURES IN CELSIUS
  WCI - WIND CHILL INDEX
   HX - HEAT INDEX
  VSB - VISIBILITY
$$





USA.gov is the U.S. government's official web portal to all federal, state and local government web resources and services.